Lid_Strength_Index
10 12 13 11 10 11 11 11 12 11 9 10 10 10 8 8 9 8 8 8 8 8 8 7 7 7 7 7 8 8 10 10 8 7 7 7 7 7 6 6 6 6 7 7
12 14 11 9 10 11 12 11 12 11 10 11 10 11 9 8 9 8 8 8 8 8 8 8 8 8 8 8 7 8 9 10 8 7 7 7 7 7 6 6 6 6 6 7
13 12 10 10 11 11 12 12 11 12 11 12 13 13 12 10 8 8 7 7 7 7 7 8 8 8 8 8 8 8 8 9 9 8 7 8 8 8 8 7 7 6 6 7
12 11 11 11 11 11 13 10 9 11 13 16 13 18 14 12 10 9 9 8 7 7 7 7 8 8 8 8 7 7 8 9 9 8 8 9 11 10 10 9 8 7 7 7
12 13 13 13 12 10 12 10 10 10 13 15 15 18 15 13 13 11 10 9 9 8 7 7 7 7 7 7 7 7 7 8 9 9 9 9 11 11 10 10 9 9 8 7
11 10 11 11 10 9 9 11 11 11 12 19 15 16 17 14 13 13 12 12 11 12 12 11 8 6 7 7 7 7 7 8 8 9 10 10 11 11 11 11 11 10 9 9
13 13 12 11 11 9 10 13 18 19 19 19 17 17 15 13 13 13 13 12 12 13 13 12 12 10 7 7 7 7 8 8 9 9 10 10 10 10 11 10 11 11 10 10
16 18 12 12 11 12 12 12 17 22 21 19 18 20 16 14 12 13 13 12 12 12 11 11 12 11 10 6 6 6 7 7 7 8 9 9 9 10 10 10 10 10 10 10
16 16 11 11 12 10 12 14 12 18 22 18 18 16 13 13 13 13 12 11 12 11 11 10 10 10 9 9 7 7 7 7 8 8 9 9 9 10 10 9 9 10 10 9
12 16 13 12 12 12 11 10 15 17 24 22 19 18 17 15 14 13 13 13 12 11 11 10 10 10 9 9 8 7 7 8 8 8 9 9 9 9 9 9 9 10 10 10
12 13 15 12 14 14 15 13 13 14 16 19 20 18 15 13 13 13 12 11 12 12 12 11 10 9 9 9 9 9 8 8 8 8 8 9 8 9 9 10 11 11 11 11
10 12 17 15 13 12 14 12 11 16 19 19 19 18 13 12 12 12 11 11 11 11 11 11 10 9 9 9 9 9 9 9 8 8 9 9 9 10 11 11 11 11 11 11
10 13 20 17 14 13 16 14 11 12 15 18 19 19 14 12 12 12 12 11 11 11 11 10 10 10 10 9 9 9 9 9 9 9 10 10 11 11 11 11 11 11 11 11
8 11 14 17 16 13 16 15 14 12 16 18 18 18 16 14 14 13 12 11 11 11 10 11 11 11 11 11 11 10 10 9 10 10 11 11 11 11 11 11 11 11 11 11
9 17 13 13 13 13 14 15 14 14 13 16 16 16 15 13 13 13 12 12 12 11 11 11 12 12 12 12 11 11 11 11 10 10 10 10 10 10 10 11 11 11 11 11
9 16 14 17 13 13 15 13 14 14 13 12 14 15 13 11 12 13 12 12 11 11 11 11 11 12 12 12 11 11 11 10 9 10 10 10 10 10 10 10 10 11 11 11
11 15 17 20 13 13 18 14 14 14 13 12 14 13 12 13 12 12 11 11 12 12 12 12 12 12 12 12 11 12 11 10 10 10 10 10 10 10 10 10 10 11 11 11
13 15 15 20 17 20 14 11 12 13 13 12 12 12 11 11 10 10 10 10 11 11 11 12 12 11 11 11 11 10 10 10 11 11 11 11 11 11 11 11 11 11 11 12
9 12 15 17 21 16 13 12 13 14 14 12 12 11 12 11 11 12 10 9 10 10 10 11 10 11 11 12 11 11 12 12 12 13 12 12 12 12 13 13 12 12 12 12
10 10 13 16 20 22 15 11 10 11 16 12 11 11 12 11 14 14 10 10 10 10 10 11 11 11 12 12 12 12 13 13 13 13 13 13 14 13 13 13 13 13 13 14
14 14 15 16 17 15 10 11 9 16 16 12 11 11 12 13 12 10 10 11 11 11 12 12 12 13 13 13 12 13 13 14 14 14 15 15 15 15 14 14 14 14 14 13
15 15 16 15 18 19 11 11 13 11 12 12 12 11 12 12 11 11 11 12 12 13 12 12 13 14 13 13 13 14 14 14 14 15 15 15 15 15 14 15 14 14 13 13
15 12 14 13 14 11 10 11 11 11 11 12 12 12 11 12 12 12 13 13 13 13 14 14 14 15 14 14 14 14 14 14 15 14 16 16 16 15 14 15 14 13 14 15
13 11 13 12 11 11 10 10 11 11 12 12 11 11 11 12 12 13 13 14 15 15 15 15 15 15 15 14 14 14 14 14 14 15 16 17 15 15 16 14 14 15 15 14
12 11 13 14 13 12 11 9 9 10 11 11 11 11 11 12 13 13 14 14 14 14 15 15 14 14 15 14 15 15 14 14 14 14 14 15 13 14 14 14 14 13 14 14
12 12 12 14 10 9 9 9 10 11 11 11 11 12 11 11 12 13 13 14 14 14 14 14 14 14 14 14 14 14 14 14 14 13 13 13 12 12 12 12 13 11 11 11